Location: Oberkirch
(48.5323°N, 8.0787°E)
Time: 17:23:23
(UTC+00:00)

SR - Pass Details

Date: 26 February 2026
Orbit: 572 x 848 km, 66.7° (Epoch: 8 March)

Event Time Altitude Azimuth Distance (km) Brightness Sun altitude
Exits shadow 04:06:26 19° 335° (NNW) 1,513 ? -22.0°
Drops below altitude 10° 04:09:21 10° 13° (NNE) 2,063 ? -21.6°
Sets 04:12:21 0° 32° (NNE) 3,035 ? -21.1°
